Location: Cornospital
(48.0620°N, 3.3837°W)
Time: 16:12:23
(UTC+00:00)

Cosmos 1908 - Pass Details

Date: 17 June 2021
Orbit: 509 x 530 km, 82.5° (Epoch: 30 July)

Event Time Altitude Azimuth Distance (km) Brightness Sun altitude
Rises 22:07:10 0° 343° (NNW) 2,674 8.6 -13.0°
Reaches altitude 10° 22:09:26 10° 334° (NNW) 1,776 7.4 -13.2°
Maximum altitude 22:13:01 36° 268° (W) 847 4.5 -13.5°
Enters shadow 22:16:19 11° 203° (SSW) 1,662 5.4 -13.8°
